Location: Ingoldesthorpe
(52.8667°N, 0.5167°E)
Time: 00:50:59
(UTC+00:00)

Geosat - Pass Details

Date: 19 May 2025
Orbit: 758 x 761 km, 108.1° (Epoch: 18 June)

Event Time Altitude Azimuth Distance (km) Brightness Sun altitude
Rises 20:39:03 0° 31° (NNE) 3,234 7.4 -5.8°
Reaches altitude 10° 20:41:20 10° 30° (NNE) 2,305 6.7 -6.0°
Maximum altitude 20:46:21 82° 304° (WNW) 775 4.2 -6.6°
Drops below altitude 10° 20:51:21 10° 218° (SW) 2,291 6.4 -7.1°
Sets 20:53:37 0° 217° (SW) 3,213 7.1 -7.3°
